User: anonymous   Login
Location: Unspecified
(0.0000°N, 0.0000°E)
Time: 17:44:25
(UTC+00:00)
Language:

EO-1 - Orbit

View from above orbital plane
View from above orbital plane
View from above satellite
View from above satellite

Ground track
Ground track

The orbit data is extracted from the following two-line orbital elements,

1 26619U 00075A   18198.46246050  .00000039  00000-0  15781-4 0  9998
2 26619  97.8087 213.1373 0008771 295.5380  64.4937 14.64451201941386
Epoch (UTC): 17 July 2018 11:05:56
Eccentricity: 0.0008771
inclination: 97.8087°
perigee height: 672 km
apogee height: 685 km
right ascension of ascending node: 213.1373°
argument of perigee: 295.5380°
revolutions per day: 14.64451201
mean anomaly at epoch: 64.4937°
orbit number at epoch: 94138

The dashed part of the orbit path shows where the satellite is in the earth's shadow,  

DLR